User: anonymous   Login
Location: Unspecified
(0.0000°N, 0.0000°E)
Time: 03:33:34
(UTC+00:00)
Language:

USA 186 - Orbit

View from above orbital plane
View from above orbital plane
View from above satellite
View from above satellite

Ground track
Ground track

The orbit data is extracted from the following two-line orbital elements,

1 28888U 05042A   14298.77298075 0.00063500  00000-0  30179-3 0    04
2 28888  96.8711 335.5522 0136898 186.7402 173.2596 15.70136792    00
Epoch (UTC): 25 October 2014 18:33:05
Eccentricity: 0.0136898
inclination: 96.8711°
perigee height: 266 km
apogee height: 451 km
right ascension of ascending node: 335.5522°
argument of perigee: 186.7402°
revolutions per day: 15.70136792
mean anomaly at epoch: 173.2596°
orbit number at epoch: 0

The dashed part of the orbit path shows where the satellite is in the earth's shadow,  

DLR